星链-5355 (STARLINK-5355 )

导读

STARLINK-5355是美国太空探索技术公司(SpaceX)星链互联网星座的成员,于2023年6月23日发射升空。它属于星链项目中低轨卫星组网的一部分,主要承担全球低延迟宽带互联网覆盖任务,依托低轨道部署,为偏远地区、海上和空中提供互联网接入服务,扩展了星链星座的服务覆盖范围,进一步完善了星座的卫星网络布局。

基本信息
目录编号:
57139
目录名称:
STARLINK-5355
国际标识:
2023-090AQ
轨道中心:
EARTH
卫星名称:
星链-5355
卫星全名:
星链-5355 (STARLINK-5355 )
卫星状态:
在轨 (已飞行1169 天)
发射日期:
2023-06-23 UTC
国别 :
美国 (US)
星等 :
--
轨道信息
数据来源 国际轨道数据 AOE轨道数据
星历时间 2026-09-04T01:09:36+0800
18小时前
查看轨道信息
2026-08-30T01:00:00+0800
5天前
查看轨道信息
半长轴 6861.234km 6861.165km
偏心率 0.0001907 0.0002091
轨道倾角 43.006° 43.004°
近地点辐角 280.303° 264.830°
升交点赤经 337.644° 5.917°
平近点角 79.760° 249.925°
近地点 481.788km 481.593km
远地点 484.406km 484.463km
周期 94.268分钟 94.266分钟
每日圈数 15.275643 15.275871
详细信息
固有亮度:
5
最大亮度:
2.4
卫星平台:
Starlink v1.5
覆盖范围:
全球
运营商:
太空探索技术公司
运营商所在国:
美国
制造商(研发单位):
太空探索技术公司
制造商所在国:
美国
使用方式:
暂无
卫星简介
星链(Starlink)计划是由太空探索技术公司(SpaceX)提出的一个巨型低轨卫星互联网星座项目,计划在2019年至2024年间在太空搭建由约1.2万颗卫星组成的“星链”网络,其中1584颗将部署在地球上空550千米处的近地轨道,并从2020年开始工作。该卫星仍在工作。
2D轨道图
3D轨道图
轨道高度分析图
轨道倾角分析图
轨道综合分析图
查看轨道综合分析图
交会数据列表
事件ID 空间交会对象 最接近时刻(TCA) 交会距离 交会风险概率(CRP) 交会风险指数(CRI) 操作
CDM_260905-221705-713905-753021
2026-09-05T
22:17:55+0000
0.964 km
远距离
1.974014E-5 中风险 0.61
CDM_260905-204305-713905-753021
2026-09-05T
20:43:45+0000
0.984 km
远距离
1.834513E-5 中风险 0.6
CDM_260906-144605-713905-753021
2026-09-06T
14:46:32+0000
1.216 km
极远距离
8.817887E-6 低风险 0.54
CDM_260906-131205-713905-753021
2026-09-06T
13:12:23+0000
1.727 km
极远距离
2.850648E-6 低风险 0.44
CDM_260905-190905-713905-753021
2026-09-05T
19:09:36+0000
2.469 km
极远距离
1.237148E-6 低风险 0.37
CDM_260905-235205-713905-753021
2026-09-05T
23:52:04+0000
2.510 km
极远距离
1.202899E-6 低风险 0.37
CDM_260905-013404-102605-713921
2026-09-05T
01:34:58+0000
2.776 km
极远距离
1.115833E-6 低风险 0.36
CDM_260906-162005-713905-753021
2026-09-06T
16:20:41+0000
2.785 km
极远距离
1.027889E-6 低风险 0.35